Weather History for KMRF - February, 2014

Change the Weather History Date:

Thursday, February 27, 2014

  Actual Average Record
Temperature  
Mean Temperature 50 °F -  
Max Temperature 71 °F 59 °F 77 °F (2011)
Min Temperature 30 °F 29 °F 10 °F (2002)
Degree Days  
Heating Degree Days 14    
Moisture  
Dew Point 26 °F    
Average Humidity 49    
Maximum Humidity 93    
Minimum Humidity 12    
Precipitation  
Precipitation 0.00 in - - ()
Sea Level Pressure  
Sea Level Pressure 30.01 in    
Wind  
Wind Speed 8 mph (WNW)    
Max Wind Speed 28 mph    
Max Gust Speed 32 mph    
Visibility 10 miles    
Events      
Averages and records for this station are not official NWS values.
T = Trace of Precipitation, MM = Missing Value Source: NWS Daily Summary

Daily Weather History Graph

Daily Weather History Graph

Search for Another Location

Airport or City:

Trip Planner

Search our weather history database for the weather conditions in past years. The results will help you decide how hot, cold, wet, or windy it might be!

Date:

Astronomy

Feb. 27, 2014 Rise Set
Actual Time 7:24 AM CST 6:53 PM CST
Civil Twilight 7:00 AM CST 7:17 PM CST
Nautical Twilight 6:32 AM CST 7:45 PM CST
Astronomical Twilight 6:04 AM CST 8:13 PM CST
Moon 5:53 AM CST (2/27) 5:25 PM CST (2/27)
Length of Visible Light 12h 17m
Length of Day
11h 29m
Waning Crescent, 4% of the Moon is Illuminated
Feb 27
Waning Crescent
Mar 1
New
Mar 8
First Quarter
Mar 16
Full
Mar 23
Last Quarter

Hourly Weather History & Observations

Time (CST) Temp. Windchill Dew Point Humidity Pressure Visibility Wind Dir Wind Speed Gust Speed Precip Events Conditions
12:15 AM 35.6 °F 29.9 °F 30.2 °F 81% 30.08 in 10.0 mi NNW 6.9 mph - N/A   Clear
12:35 AM 33.8 °F 30.8 °F 30.2 °F 87% 30.08 in 10.0 mi North 3.5 mph - N/A   Clear
12:55 AM 33.8 °F 30.8 °F 30.2 °F 87% 30.08 in 10.0 mi NNE 3.5 mph - N/A   Clear
1:15 AM 33.8 °F 29.6 °F 28.4 °F 81% 30.07 in 10.0 mi ENE 4.6 mph - N/A   Clear
1:35 AM 33.8 °F 30.8 °F 30.2 °F 87% 30.07 in 10.0 mi ENE 3.5 mph - N/A   Clear
1:55 AM 33.8 °F 30.8 °F 30.2 °F 87% 30.07 in 10.0 mi NNW 3.5 mph - N/A   Clear
2:15 AM 30.2 °F 24.3 °F 28.4 °F 93% 30.07 in 10.0 mi North 5.8 mph - N/A   Clear
2:35 AM 32.0 °F 28.7 °F 28.4 °F 87% 30.06 in 10.0 mi North 3.5 mph - N/A   Clear
2:55 AM 32.0 °F - 28.4 °F 87% 30.06 in 10.0 mi Calm Calm - N/A   Clear
3:15 AM 32.0 °F 27.5 °F 28.4 °F 87% 30.05 in 10.0 mi North 4.6 mph - N/A   Clear
3:35 AM 32.0 °F 25.6 °F 28.4 °F 87% 30.05 in 10.0 mi NNW 6.9 mph - N/A   Clear
3:55 AM 33.8 °F 28.6 °F 30.2 °F 87% 30.04 in 10.0 mi North 5.8 mph - N/A   Clear
4:15 AM 33.8 °F 28.6 °F 30.2 °F 87% 30.04 in 10.0 mi North 5.8 mph - N/A   Clear
4:35 AM 32.0 °F 27.5 °F 30.2 °F 93% 30.04 in 10.0 mi North 4.6 mph - N/A   Clear
4:55 AM 30.2 °F 24.3 °F 28.4 °F 93% 30.05 in 10.0 mi NNW 5.8 mph - N/A   Clear
5:15 AM 30.2 °F 25.4 °F 28.4 °F 93% 30.05 in 10.0 mi NNW 4.6 mph - N/A   Clear
5:35 AM 32.0 °F 27.5 °F 28.4 °F 87% 30.05 in 10.0 mi North 4.6 mph - N/A   Clear
5:55 AM 30.2 °F 25.4 °F 28.4 °F 93% 30.05 in 10.0 mi North 4.6 mph - N/A   Clear
6:15 AM 30.2 °F 25.4 °F 28.4 °F 93% 30.05 in 10.0 mi NNE 4.6 mph - N/A   Clear
6:35 AM 32.0 °F 26.4 °F 30.2 °F 93% 30.05 in 10.0 mi NE 5.8 mph - N/A   Clear
6:55 AM 30.2 °F 25.4 °F 28.4 °F 93% 30.05 in 10.0 mi North 4.6 mph - N/A   Clear
7:15 AM 30.2 °F 26.7 °F 28.4 °F 93% 30.06 in 10.0 mi North 3.5 mph - N/A   Clear
7:35 AM 30.2 °F 26.7 °F 28.4 °F 93% 30.06 in 10.0 mi North 3.5 mph - N/A   Clear
7:55 AM 32.0 °F 28.7 °F 30.2 °F 93% 30.07 in 10.0 mi NNW 3.5 mph - N/A   Clear
8:15 AM 35.6 °F - 33.8 °F 93% 30.06 in 10.0 mi Calm Calm - N/A   Clear
8:35 AM 42.8 °F - 37.4 °F 81% 30.07 in 10.0 mi Calm Calm - N/A   Clear
8:55 AM 46.4 °F - 39.2 °F 76% 30.07 in 10.0 mi Calm Calm - N/A   Clear
9:15 AM 51.8 °F - 39.2 °F 62% 30.08 in 10.0 mi South 4.6 mph - N/A   Clear
9:35 AM 53.6 °F - 39.2 °F 58% 30.09 in 10.0 mi SSW 3.5 mph - N/A   Clear
9:55 AM 55.4 °F - 39.2 °F 54% 30.09 in 10.0 mi SSE 4.6 mph - N/A   Clear
10:15 AM 57.2 °F - 39.2 °F 51% 30.09 in 10.0 mi South 3.5 mph - N/A   Clear
10:35 AM 57.2 °F - 39.2 °F 51% 30.08 in 10.0 mi SW 6.9 mph - N/A   Clear
10:55 AM 62.6 °F - 37.4 °F 39% 30.07 in 10.0 mi SSW 5.8 mph - N/A   Clear
11:15 AM 64.4 °F - 35.6 °F 34% 30.07 in 10.0 mi WSW 11.5 mph - N/A   Clear
11:35 AM 66.2 °F - 33.8 °F 30% 30.06 in 10.0 mi West 16.1 mph 20.7 mph N/A   Clear
11:55 AM 68.0 °F - 32.0 °F 26% 30.05 in 10.0 mi West 13.8 mph - N/A   Clear
12:15 PM 69.8 °F - 30.2 °F 23% 30.04 in 10.0 mi WSW 17.3 mph 21.9 mph N/A   Clear
12:35 PM 69.8 °F - 28.4 °F 21% 30.03 in 10.0 mi West 18.4 mph 24.2 mph N/A   Clear
12:55 PM 69.8 °F - 28.4 °F 21% 30.02 in 10.0 mi West 20.7 mph 25.3 mph N/A   Clear
1:15 PM 69.8 °F - 28.4 °F 21% 30.01 in 10.0 mi West 20.7 mph 32.2 mph N/A   Clear
1:35 PM 69.8 °F - 26.6 °F 20% 30.00 in 10.0 mi West 17.3 mph 26.5 mph N/A   Clear
1:55 PM 69.8 °F - 26.6 °F 20% 29.99 in 10.0 mi WSW 16.1 mph 28.8 mph N/A   Clear
2:15 PM 71.6 °F - 24.8 °F 17% 29.98 in 10.0 mi West 23.0 mph 26.5 mph N/A   Clear
2:35 PM 71.6 °F - 26.6 °F 19% 29.97 in 10.0 mi West 20.7 mph 29.9 mph N/A   Clear
2:55 PM 69.8 °F - 26.6 °F 20% 29.96 in 10.0 mi WSW 21.9 mph 28.8 mph N/A   Clear
3:15 PM 71.6 °F - 26.6 °F 19% 29.95 in 10.0 mi West 23.0 mph 28.8 mph N/A   Clear
3:35 PM 71.6 °F - 24.8 °F 17% 29.94 in 10.0 mi West 27.6 mph 32.2 mph N/A   Clear
3:55 PM 71.6 °F - 21.2 °F 15% 29.94 in 10.0 mi WSW 20.7 mph 31.1 mph N/A   Clear
4:15 PM 71.6 °F - 19.4 °F 14% 29.93 in 10.0 mi WSW 20.7 mph 32.2 mph N/A   Clear
4:35 PM 71.6 °F - 19.4 °F 14% 29.93 in 10.0 mi WSW 23.0 mph 31.1 mph N/A   Clear
4:55 PM 71.6 °F - 19.4 °F 14% 29.92 in 10.0 mi West 21.9 mph 27.6 mph N/A   Clear
5:15 PM 71.6 °F - 19.4 °F 14% 29.92 in 10.0 mi West 23.0 mph 28.8 mph N/A   Clear
5:35 PM 71.6 °F - 17.6 °F 13% 29.91 in 10.0 mi West 20.7 mph 27.6 mph N/A   Clear
5:55 PM 71.6 °F - 15.8 °F 12% 29.91 in 10.0 mi West 18.4 mph - N/A   Clear
6:15 PM 69.8 °F - 15.8 °F 13% 29.92 in 10.0 mi West 19.6 mph - N/A   Clear
6:35 PM 68.0 °F - 15.8 °F 13% 29.92 in 10.0 mi West 16.1 mph - N/A   Clear
6:55 PM 64.4 °F - 15.8 °F 15% 29.92 in 10.0 mi West 9.2 mph - N/A   Clear
7:15 PM 60.8 °F - 15.8 °F 17% 29.93 in 10.0 mi West 9.2 mph - N/A   Clear
7:35 PM 57.2 °F - 15.8 °F 20% 29.93 in 10.0 mi West 6.9 mph - N/A   Clear
7:55 PM 51.8 °F - 12.2 °F 21% 29.93 in 10.0 mi WNW 6.9 mph - N/A   Clear
8:15 PM 53.6 °F - 15.8 °F 22% 29.93 in 10.0 mi WNW 5.8 mph - N/A   Clear
8:35 PM 48.2 °F - 12.2 °F 24% 29.93 in 10.0 mi WNW 5.8 mph - N/A   Clear
8:55 PM 46.4 °F 44.3 °F 12.2 °F 25% 29.94 in 10.0 mi WNW 4.6 mph - N/A   Clear
9:15 PM 46.4 °F 45.2 °F 12.2 °F 25% 29.94 in 10.0 mi WNW 3.5 mph - N/A   Clear
9:35 PM 44.6 °F 41.4 °F 14.0 °F 29% 29.94 in 10.0 mi NW 5.8 mph - N/A   Clear
9:55 PM 42.8 °F 39.3 °F 12.2 °F 29% 29.93 in 10.0 mi WNW 5.8 mph - N/A   Clear
10:15 PM 44.6 °F - 15.8 °F 31% 29.94 in 10.0 mi Calm Calm - N/A   Clear
10:35 PM 44.6 °F 42.2 °F 15.8 °F 31% 29.93 in 10.0 mi WNW 4.6 mph - N/A   Clear
10:55 PM 42.8 °F 39.3 °F 15.8 °F 34% 29.93 in 10.0 mi WNW 5.8 mph - N/A   Clear
11:15 PM 42.8 °F 39.3 °F 15.8 °F 34% 29.93 in 10.0 mi West 5.8 mph - N/A   Clear
11:35 PM 42.8 °F 40.1 °F 15.8 °F 34% 29.94 in 10.0 mi WSW 4.6 mph - N/A   Clear
11:55 PM 42.8 °F 38.6 °F 15.8 °F 34% 29.94 in 10.0 mi West 6.9 mph - N/A   Clear